Regional Weather Roundup
Issued by NWS

Home | Current Version | Previous Version | Graphics & Text | Print | Product List | Glossary On
Versions: 1 2 3 4 5 6 7 8 9 10 11 12 13 14 15 16 17 18 19 20 21 22 23 24 25 26 27 28 29 30 31 32 33 34 35 36 37 38 39 40 41 42 43 44 45 46 47 48 49 50
169
ASUS45 KCYS 210010
RWRWY

WYOMING REGIONAL WEATHER ROUNDUP
NATIONAL WEATHER SERVICE CHEYENNE WY
600 PM MDT THU JUL 20 2017

NOTE:  "FAIR" INDICATES FEW OR NO CLOUDS BELOW 12,000 FEET
WITH NO SIGNIFICANT WEATHER AND/OR OBSTRUCTIONS TO VISIBILITY.

WYZ001-210100-
YELLOWSTONE NATIONAL PARK

CITY           SKY/WX    TMP DP  RH WIND       PRES   REMARKS
LK YELLOWSTONE   N/A     65  54  67 VRB3      30.29F
6HR MIN TEMP:  59; 6HR MAX TEMP:  67;

W YELLOWSTONE  NOT AVBL

$$
WYZ002>013-054>058-071-098>099-210100-
NORTHERN WYOMING

CITY           SKY/WX    TMP DP  RH WIND       PRES   REMARKS
JACKSON        MOSUNNY   70  57  64 CALM      30.19F
CODY           FAIR      69  54  58 SW8       30.05F
GREYBULL       LGT RAIN  75  56  51 N14       30.04R
6HR MIN TEMP:  77; 6HR MAX TEMP: 101; 6HR PCP: TRACE;

WORLAND        FAIR      80  52  37 NW30G46   29.99
6HR MIN TEMP:  80; 6HR MAX TEMP: 103;

SHERIDAN       FAIR      81  53  37 W6        29.95
6HR MIN TEMP:  76; 6HR MAX TEMP: 102; 6HR PCP: TRACE;

BUFFALO        LGT RAIN  74  50  42 NW20G28   30.02
6HR MIN TEMP:  76; 6HR MAX TEMP: 100; 6HR PCP: TRACE;

GILLETTE       FAIR      95  43  16 S10G18    29.89  HX  91
6HR MIN TEMP:  94; 6HR MAX TEMP: 100;

HULETT         FAIR      97  48  19 S17G25    29.90F HX  93
NEWCASTLE      FAIR      93  46  20 S17G28    29.95S

$$
WYZ014>020-022>026-101>103-210100-
CENTRAL WYOMING

CITY           SKY/WX    TMP DP  RH WIND       PRES   REMARKS
BIG PINEY      TSTM      65  53  65 NE16G28   30.22R
6HR MIN TEMP:  67; 6HR MAX TEMP:  84; 6HR PCP:  0.19;

PINEDALE       CLOUDY    63  50  63 N15G25    30.24F
DUBOIS         FAIR      61  52  72 CALM      30.26F
LANDER         FAIR      86  47  25 NW12      30.05R
6HR MIN TEMP:  83; 6HR MAX TEMP:  95; 6HR PCP: TRACE;

RIVERTON       FAIR      75  51  43 NW38G48   30.06R
6HR MIN TEMP:  75; 6HR MAX TEMP:  95;

CASPER         FAIR      93  44  18 SW9       29.99F
6HR MIN TEMP:  86; 6HR MAX TEMP:  95;

DOUGLAS        FAIR      89  53  29 S18G28    29.99F
6HR MIN TEMP:  89; 6HR MAX TEMP:  98;


$$
WYZ021-027>030-104>119-210100-
SOUTHERN WYOMING

CITY           SKY/WX    TMP DP  RH WIND       PRES   REMARKS
EVANSTON       FAIR      82  50  32 W20       30.21F
6HR MIN TEMP:  77; 6HR MAX TEMP:  86;

KEMMERER         N/A     81  41  24 W21G29    30.21S
FORT BRIDGER   FAIR      89  45  22 W17G29    30.21F
ROCK SPRINGS   FAIR      86  42  21 SW14      30.14F
6HR MIN TEMP:  78; 6HR MAX TEMP:  90;

RAWLINS        FAIR      85  43  22 W16G26    30.15F
6HR MIN TEMP:  80; 6HR MAX TEMP:  89;

SARATOGA       FAIR      81  45  28 W15G22    30.21S
LARAMIE        FAIR      74  52  46 SE14      30.21F THUNDER
6HR MIN TEMP:  69; 6HR MAX TEMP:  85; 6HR PCP:  0.06;

CHEYENNE       FAIR      82  47  29 S9        30.16R
6HR MIN TEMP:  78; 6HR MAX TEMP:  92; 6HR PCP: TRACE;

TORRINGTON     FAIR      85  58  39 E16       29.97F
6HR MIN TEMP:  83; 6HR MAX TEMP:  92;

PINE BLUFFS    FAIR      86  50  28 S3        30.09F

$$




USA.gov is the U.S. government's official web portal to all federal, state and local government web resources and services.